{"data":{"norad_id":53553,"epoch":"2026-05-25T02:24:04.363200Z","epoch_age_seconds":60171,"freshness":"FRESH","line1":"1 53553U 22101AC  26145.10005050  .00000663  00000+0  59760-4 0  9991","line2":"2 53553  53.2128  80.9752 0001347  67.2693 292.8441 15.08837231208506","mean_motion":15.08837231,"eccentricity":0.0001347,"inclination_deg":53.2128,"raan_deg":80.9752,"arg_perigee_deg":67.2693,"mean_anomaly_deg":292.8441,"bstar":5.976e-5,"rev_number":20850,"period_min":95.437729823622,"perigee_km":538.82001307383,"apogee_km":540.68369233075,"semimajor_km":6917.8888527023,"source":"CELESTRAK","updated_at":"2026-05-25T13:38:17.444671Z"}}